User: anonymous   Login
Location: ?????????
(38.0736°N, 23.2119°E)
Time: 03:14:28
(UTC+00:00)
Language:

SL-16 R/B - Orbit

View from above orbital plane
View from above orbital plane
View from above satellite
View from above satellite

Ground track
Ground track

The orbit data is extracted from the following two-line orbital elements,

1 31793U 07029B   24167.94882625  .00000328  00000-0  19555-3 0  9996
2 31793  70.9770  60.1765 0002384 261.7044 109.3912 14.14636905876028
Epoch (UTC): 15 June 2024 22:46:18
Eccentricity: 0.0002384
inclination: 70.9770°
perigee height: 842 km
apogee height: 845 km
right ascension of ascending node: 60.1765°
argument of perigee: 261.7044°
revolutions per day: 14.14636905
mean anomaly at epoch: 109.3912°
orbit number at epoch: 87602

The dashed part of the orbit path shows where the satellite is in the earth's shadow,  

DLR